Regional Weather Roundup
Issued by NWS

Home | Current Version | Previous Version | Text Only | Print | Product List | Glossary On
Versions: 1 2 3 4 5 6 7 8 9 10 11 12 13 14 15 16 17 18 19 20 21 22 23 24 25 26 27 28 29 30 31 32 33 34 35 36 37 38 39 40 41 42 43 44 45 46 47 48 49 50
000
ASUS44 KFWD 220215
RWRTX
NORTH TEXAS HOURLY WEATHER ROUNDUP
NATIONAL WEATHER SERVICE FORT WORTH TX
900 PM CDT SAT OCT 21 2017

NOTE: "FAIR" INDICATES FEW OR NO CLOUDS BELOW 12,000 FEET WITH NO
SIGNIFICANT WEATHER AND/OR OBSTRUCTIONS TO VISIBILITY.

TXZ118-119-220300-
DALLAS/FORT WORTH METROPLEX

CITY           SKY/WX    TMP DP  RH WIND       PRES   REMARKS
DFW AIRPORT    FAIR      82  64  54 S13       29.81S
DALLAS LOVE    FAIR      82  65  56 S13       29.83S
FTW MEACHAM    FAIR      82  65  56 S18G25    29.81S
DAL-EXECUTIVE  FAIR      80  67  64 S7        29.83S
FTW-ALLIANCE   FAIR      81  63  54 S13G21    29.81R
FTW-NAS-JRB    FAIR      81  62  52 S15       29.82S
FTW-SPINKS     FAIR      78  63  59 S8        29.86R
ARLINGTON      FAIR      80  66  62 S12       29.83S
ADDISON        CLEAR     82  64  54 S10G20    29.84S
MESQUITE       FAIR      78  66  66 SE7       29.84S
LANCASTER      MOCLDY    80  66  64 S8        29.85R
$$

TXZ091>094-102>105-117-120-121-131>134-220300-
NORTH CENTRAL TEXAS

CITY           SKY/WX    TMP DP  RH WIND       PRES   REMARKS
SHRMAN/DENISON MOCLDY    79  65  61 SE14      29.83R
GAINESVILLE    CLOUDY    79  63  58 S12       29.83R
BOWIE          FAIR      79  64  59 S12G21    29.82R
BRIDGEPORT     FAIR      79  62  55 S12       29.83R
DECATUR        FAIR      80  63  55 S15G22    29.81R
DENTON         CLOUDY    81  64  56 S18G24    29.81R
MCKINNEY       FAIR      78  68  71 SE10      29.82S
BONHAM         FAIR     N/A N/A N/A SE12      29.84S
GREENVILLE     MOCLDY    81  68  65 SE9       29.86S
ROCKWALL       MOCLDY    79  68  69 S10       29.85R
TERRELL        FAIR      80  68  66 S14       29.86R
WAXAHACHIE     FAIR      78  66  66 S8        29.87R
CLEBURNE       FAIR      77  66  69 S6        29.88R
GRANBURY       FAIR      82  64  53 S13       29.85S
$$

TXZ083>090-098>101-113>116-127>130-139>142-154-155-220300-
WESTERN NORTH TEXAS

CITY           SKY/WX    TMP DP  RH WIND       PRES   REMARKS
WICHITA FALLS  TSTM      65  60  84 N21G30    29.82R
WF-KICKAPOO    CLOUDY    68  60  77 NW16G31   29.85R
VERNON         MOCLDY    63  57  82 NE10      29.93R THUNDER
ABILENE        FAIR      73  63  68 S9        29.86R
GRAHAM         FAIR      79  63  57 S9        29.81R
BRECKENRIDGE   FAIR      79  62  54 S14       29.84R
CISCO          FAIR      77  63  61 S13       29.88R
EASTLAND       FAIR      76  63  65 S9        29.87R
RANGER         FAIR      77  63  60 S9G16     29.87R
MINERAL WELLS  LGT RAIN  78  64  61 S12       29.82R
STEPHENVILLE   FAIR      76  63  62 S5        29.90R
COMANCHE       LGT RAIN  77  64  63 S8        29.88R
BROWNWOOD      MOCLDY    72  66  83 S5        29.89R
COLEMAN        FAIR      76  62  60 S8        29.89R
$$

TXZ143>147-156>162-174-175-220300-
CENTRAL TEXAS

CITY           SKY/WX    TMP DP  RH WIND       PRES   REMARKS
WACO           NOT AVBL
WACO-MCGREGOR  MOCLDY    81  68  64 S10       29.87R
HILLSBORO      FAIR      81  68  65 SE9       29.87R
CORSICANA      FAIR      79  71  76 SE14      29.88S
MEXIA          FAIR      79  68  70 SE8       29.88S
CAMERON        FAIR      79  72  78 SE5       29.89R
KILLEEN        FAIR      79  65  62 S7        29.88R
KILLEEN-SKYLRK FAIR      77  66  68 CALM      29.89R
FORT HOOD      FAIR      78  65  64 S6        29.85R
GATESVILLE     FAIR      77  64  65 S6        29.89F
HAMILTON       FAIR      75  64  69 S8        29.89S
LAMPASAS       FAIR      76  67  74 CALM      29.90R
$$

TXZ095>097-106>112-122>126-135>138-148>153-164>167-220300-
EAST TEXAS

CITY           SKY/WX    TMP DP  RH WIND       PRES   REMARKS
PARIS          FAIR      75  66  73 SE15      29.87S
SULPHUR SPRNGS FAIR      77  67  71 SE9       29.88F
MOUNT PLEASANT FAIR      76  68  77 SE7       29.91R
GILMER         LGT RAIN  80  68  68 SE8       29.91R
MINEOLA        FAIR      79  68  69 SE6       29.89R
TYLER          FAIR      79  71  76 SE14      29.91R
LONGVIEW       FAIR      79  70  74 SE10      29.91S
MARSHALL       FAIR      76  67  73 SE3       29.96R
ATHENS         FAIR      77  68  73 S8        29.88S
PALESTINE      FAIR      79  71  76 SE7       29.92R
JACKSONVILLE   FAIR      77  72  83 SE9       29.95R
HENDERSON      FAIR      78  70  75 SE12G17   29.93S
CENTER         FAIR      80  73  81 SE3       29.97R
NACOGDOCHES    FAIR      76  72  87 SE8       29.94R
LUFKIN         FAIR      74  71  91 SE7       29.94R
$$

SUPPLEMENTAL OBSERVATIONS (NWS FORT WORTH AREA)

CITY           SKY/WX    TMP DP  RH WIND       PRES   REMARKS
DENISON DAM      N/A     79  66  65 SE7         N/A
CADDO GRASSLND   N/A     77  66  69 S6          N/A
PAT MAYSE LAKE   N/A     77  68  73 E12         N/A
LBJ GRASSLAND    N/A     81  63  54 S14G23      N/A
MCGREGOR         N/A     79  64  61 SW2         N/A
ATHENS           N/A     79  68  69 SE12        N/A
$$

SUPPLEMENTAL OBSERVATIONS (NWS NORMAN AREA)

CITY           SKY/WX    TMP DP  RH WIND       PRES   REMARKS
GOODLETT         N/A     62  45  52 N17       29.90S
ODELL            N/A     61  56  83 NW9       29.94R
CROWELL          N/A     63  56  77 E10       29.94R
KNOX CITY        N/A     64  55  73 N13       29.88F
SEYMOUR        HVY RAIN  59  57  93 N16       29.92R
MILLERS CREEK    N/A     63  55  77 NW22G41     N/A
$$

SUPPLEMENTAL OBSERVATIONS (NWS SAN ANGELO AREA)

CITY           SKY/WX    TMP DP  RH WIND       PRES   REMARKS
WEINERT          N/A     59  56  89 NE10      29.92R
HASKELL        LGT RAIN  59  55  84 NE15      29.94R
THROCKMORTON     N/A     69  66  90 S6        29.83F
STAMFORD         N/A     76  53  45 NW22      29.90R
CLYDE            N/A     75  63  67 S15       29.89R
HAMBY            N/A    N/A N/A N/A SW7G15      N/A
IVIE RESERVOIR   N/A     75  63  64 SE7         N/A
COLORADO BEND    N/A     79  63  57 S5          N/A
$$

SUPPLEMENTAL OBSERVATIONS (NWS SHREVEPORT AREA)

CITY           SKY/WX    TMP DP  RH WIND       PRES   REMARKS
CLARKSVILLE      N/A     77  64  65 SE9         N/A
TEXARKANA        N/A     79  70  73 SE6         N/A
LINDEN           N/A     79  66  65 E3G12       N/A
GILMER           N/A     81  68  65 SE7G17      N/A
HENDERSON        N/A     79  70  73 SE7G15      N/A
LUFKIN           N/A     75  72  88 MISG        N/A
N SABINE NF      N/A     73  70  88 MISG        N/A
S SABINE NF      N/A     75  72  88 E2          N/A
$$

SUPPLEMENTAL OBSERVATIONS ARE A COLLECTION OF AUTOMATED INSTRUMENTS
THAT ARE MAINTAINED BY A VARIETY OF FEDERAL AND STATE AGENCIES.
CERTAIN ELEMENTS...SUCH AS HUMIDITY VALUES AND SUSTAINED WIND
SPEEDS...MAY BE APPROXIMATED.





USA.gov is the U.S. government's official web portal to all federal, state and local government web resources and services.